Location: Rodson Ranch
(38.7188°N, 119.3202°W)
Time: 16:58:33
(UTC+00:00)

Cosmos 1400 Rocket - Pass Details

Date: 29 October 2020
Orbit: 521 x 568 km, 81.2° (Epoch: 23 November)

Event Time Altitude Azimuth Distance (km) Brightness Sun altitude
Rises 12:44:04 0° 351° (N) 2,689 6.2 -19.5°
Reaches altitude 10° 12:46:14 10° 352° (N) 1,787 5.3 -19.1°
Maximum altitude 12:50:10 83° 80° (E) 535 2.7 -18.4°
Drops below altitude 10° 12:54:02 10° 170° (S) 1,754 5.5 -17.6°
Sets 12:56:09 0° 171° (S) 2,634 6.5 -17.2°
